Tracking 22094 objects as of 17-Jan-2021
HD Live streaming from Space Station
objects crossing your sky now

STARLINK-1735

Track STARLINK-1735 now!
10-day predictions
STARLINK-1735 is classified as:


NORAD ID: 46565
Int'l Code: 2020-070AK
Perigee: 553.3 km
Apogee: 555.3 km
Inclination: 53.0 °
Period: 95.6 minutes
Semi major axis: 6925 km
RCS: Unknown
Launch date: October 6, 2020
Source: United States (US)
Launch site: AIR FORCE EASTERN TEST RANGE (AFETR)
aabbcc
Your satellite tracking list
Your tracking list is empty




NASA's NSSDC Master Catalog

Two Line Element Set (TLE):
1 46565U 20070AK  21016.91667824 -.00028399  00000-0 -18938-2 0  9992
2 46565  53.0301 306.3658 0001469  71.5750  51.8673 15.06427035  1752
Source of the keplerian elements: AFSPC